This is the latest recevied weather packets stored in our database for station/object KN1OBI-13. If no packets are shown the sender has not sent any weather packets the latest 10 day(s).
| Time | Temp. | Humidity | Pressure | Rain* | Wind** | Luminosity | Snow |
|---|---|---|---|---|---|---|---|
| 1788437792 | 16.67° C | 96% | 994.6 hPa | 0 mm | - | - | - |
| 1788437192 | 16.67° C | 96% | 995 hPa | 0 mm | - | - | - |
| 1788436592 | 16.67° C | 96% | 994.9 hPa | 0 mm | - | - | - |
| 1788435992 | 16.11° C | 95% | 995 hPa | 0 mm | - | - | - |
| 1788435392 | 16.11° C | 95% | 995 hPa | 0 mm | - | - | - |
| 1788434792 | 16.11° C | 95% | 995.4 hPa | 0 mm | - | - | - |
| 1788434192 | 16.11° C | 95% | 995.1 hPa | 0 mm | - | - | - |
| 1788433592 | 16.11° C | 95% | 995.1 hPa | 0 mm | - | - | - |
| 1788432992 | 16.11° C | 95% | 994.7 hPa | 0 mm | - | - | - |
| 1788432392 | 16.11° C | 94% | 994.8 hPa | 0 mm | - | - | - |
| 1788431792 | 15.56° C | 94% | 994.9 hPa | 0 mm | - | - | - |
| 1788431192 | 15.56° C | 94% | 994.9 hPa | 0 mm | - | - | - |
| 1788430592 | 15.56° C | 94% | 994.9 hPa | 0 mm | - | - | - |
| 1788429992 | 15.56° C | 94% | 994.8 hPa | 0.51 mm | - | - | - |
| 1788429392 | 15.56° C | 93% | 994.9 hPa | 1.02 mm | - | - | - |
| 1788428792 | 15.56° C | 93% | 994.8 hPa | 1.78 mm | - | - | - |
| 1788428192 | 15.56° C | 92% | 995 hPa | 4.57 mm | - | - | - |
| 1788427592 | 15.56° C | 92% | 995.5 hPa | 7.62 mm | - | - | - |
| 1788426992 | 15.56° C | 92% | 995.1 hPa | 4.57 mm | - | - | - |
| 1788426392 | 16.11° C | 91% | 995 hPa | 2.79 mm | - | - | - |
| 1788425792 | 16.11° C | 91% | 995.3 hPa | 0 mm | - | - | - |
| 1788425192 | 16.11° C | 90% | 995.3 hPa | 0 mm | - | - | - |
| 1788424592 | 16.11° C | 90% | 995.1 hPa | 0 mm | - | - | - |
| 1788423992 | 16.11° C | 90% | 995 hPa | 0 mm | - | - | - |
| 1788423392 | 16.11° C | 89% | 995.5 hPa | 0 mm | - | - | - |
* Rain latest hour (hover to see other rain measurements)
** Current wind speed in m/s (hover to see current wind gust speed)